Weather Service Report


952 
ASUS43 KIND 012209
RWRIN 

WEATHER ROUNDUP FOR INDIANA
NATIONAL WEATHER SERVICE INDIANAPOLIS IN
600 PM EDT FRI JUL 01 2016

NOTE: "FAIR" INDICATES FEW OR NO CLOUDS BELOW 12,000 FEET WITH NO
SIGNIFICANT WEATHER AND/OR OBSTRUCTIONS TO VISIBILITY.

* - STATION DOES NOT REPORT WEATHER SUCH AS PRECIPITATION OR FOG.

+ - STATION NOT QUALITY CONTROLLED BY THE NATIONAL WEATHER SERVICE.
    USE DATA WITH CAUTION...ESPECIALLY DEWPOINT AND RELATIVE
    HUMIDITY OBSERVATIONS.

INZ001>003-010>013-019-020-012300-
NORTHWEST INDIANA
  
CITY           SKY/WX    TMP DP  RH WIND       PRES   REMARKS
GARY /AIRPORT/ MOSUNNY   68  61  77 N12G23    30.14S                  
KNOX *+        SUNNY     68  41  37 N14G22    30.12R                  
LA PORTE +     SUNNY     68  53  58 NW15      30.13S                  
MICHIGAN CITY+ MOSUNNY   64  52  63 N10G20    30.13S                  
MONTICELLO +   MOSUNNY   73  48  41 N9G21     30.09S                  
RENSSELAER +   SUNNY     72  50  46 N7        30.11S                  
VALPARAISO     SUNNY     68  52  56 N14G20    30.13R                  

$$

LMZ046-743>745-012300-
SOUTHERN LAKE MICHIGAN
  
STATION/POSITION TIME  TEMP    WIND        PRES    WAVE
                       AIR SEA DIR/SP/G            HT
                 (UTC) (F)     (DEG/KT/KT) (MB)    (FT)
BURNS HARBOR     2108   63      20/ 15/ 20 1020.7R
MICHIGAN CITY    2100   63     340/ 14/ 16   N/A
5NW MICH CITY    2200   63 69   10/ 12/ 16   N/A     6

$$

INZ004-005-014>016-021>024-012300-
NORTH CENTRAL INDIANA
  
CITY           SKY/WX    TMP DP  RH WIND       PRES   REMARKS
ELKHART        SUNNY     68  55  64 NW10G17   30.09S                  
GOSHEN         SUNNY     70  48  45 NW18      30.08S                  
LOGANSPORT +   SUNNY     72  52  49 N15       30.10R                  
PERU/GRISSOM   PTSUNNY   72  54  52 NW14G23   30.07R                  
ROCHESTER +    SUNNY     72  54  53 NW16G22   30.10R                  
SOUTH BEND     SUNNY     66  48  52 NW18      30.11R                  
WARSAW +       MOSUNNY   70  52  52 NW13G22   30.09R                  

$$

INZ006>009-017-018-025>027-012300-
NORTHEAST INDIANA
  
CITY           SKY/WX    TMP DP  RH WIND       PRES   REMARKS
ANGOLA *+        N/A     72  66  83 NW13      30.04R                  
AUBURN +       MOSUNNY   73  52  46 NW8       30.05R                  
FORT WAYNE     PTSUNNY   75  53  46 NW14G20   30.06R                  
HUNTINGTON +   MOSUNNY  N/A N/A N/A NW6       30.06R                  

$$

INZ028-029-035-036-043>045-051>053-012300-
WEST CENTRAL INDIANA
  
CITY           SKY/WX    TMP DP  RH WIND       PRES   REMARKS
CRAWFORDSVL +  SUNNY     73  54  51 N13       30.08S                  
GREENCASTLE +  MOSUNNY   77  61  57 N14       30.07R                  
LAFAYETTE      SUNNY     74  55  51 N13       30.09R                  
TERRE HAUTE    SUNNY     79  54  41 N8        30.06R                  

$$

INZ030>032-037>040-046>048-054>057-064-065-012300-
CENTRAL INDIANA
  
CITY           SKY/WX    TMP DP  RH WIND       PRES   REMARKS
CP ATTERBURY + MOSUNNY   81  54  39 N12G18    30.04S                  
COLUMBUS       PTSUNNY   81  57  44 N12       30.03S                  
FISHERS *+     MOSUNNY  N/A N/A N/A NW9G16    30.07R                  
FRANKFORT +    MOSUNNY   73  56  54 N10G17    30.11R                  
GREENWOOD *+   SUNNY     77  54  44 N12G21    30.05S                  
INDIANAPOLIS   MOSUNNY   77  55  46 NW15      30.06R                  
-EAGLE CREEK   MOSUNNY   77  55  46 NW13      30.06R                  
KOKOMO *+      MOSUNNY   73  54  49 N14       30.07S                  
MARION +       MOSUNNY   73  53  50 NW8G17    30.08R                  
MT COMFORT *+  SUNNY     75  55  50 N14       30.06R                  
SHELBYVILLE    SUNNY     81  54  39 N16       30.03S                  
ZIONSVILLE +   SUNNY     73  55  53 NW12G21   30.08S                  

$$

INZ033-034-041-042-049-050-058-059-012300-
EAST CENTRAL INDIANA
  
CITY           SKY/WX    TMP DP  RH WIND       PRES   REMARKS
MUNCIE         MOSUNNY   77  54  44 NW14      30.06R                  

$$

INZ060-061-067>069-081>083-085>088-012300-
SOUTHWEST INDIANA
  
CITY           SKY/WX    TMP DP  RH WIND       PRES   REMARKS
EVANSVILLE     SUNNY     86  59  39 NW12G18   30.01S                  
HUNTINGBURG *+ SUNNY     84  61  45 N13       30.01S                  
WASHINGTON +   SUNNY     81  59  47 N10       30.02S                  

$$

INZ062-063-066-070>080-084-089>092-012300-
SOUTH CENTRAL AND SOUTHEAST INDIANA
  
CITY           SKY/WX    TMP DP  RH WIND       PRES   REMARKS
BEDFORD +      SUNNY     79  66  65 N7        30.02S                  
BLOOMINGTON    MOSUNNY   81  57  43 N8        30.05R                  
MADISON *+     SUNNY     82  54  36 NW10G18   30.03S                  
NORTH VERNON + SUNNY     81  61  50 CALM      30.03S                  
SEYMOUR +      SUNNY     84  55  37 N12       30.01S                  

$$

  

Return to Home page


Western Regional Climate Center, wrcc@dri.edu